Home   Weather   Luanda   Past weeks

Flag for Angola Past Weather in Luanda, Angola — Yesterday and Last 2 Weeks

Now
79 °F

Passing clouds.


Feels Like: 82 °F
Forecast: 76 / 88 °F
Wind: 5 mph from Southwest

Location: Luanda Airport

Current Time: Jan 18, 2017 at 11:39:20 pm

Latest Report: Jan 18, 2017 at 11:00 pm


Visibility: N/A

Pressure: 29.86 "Hg

Humidity: 79%

Dew Point: 72 °F

Location of LuandaLocation

Past Weather in Luanda — Graph

°F

Luanda Temperature Yesterday

Maximum temperature yesterday: 88 °F (at 12:00 pm)
Minimum temperature yesterday: 75 °F (at 4:00 am)
Average temperature yesterday: 80 °F

High & Low Weather Summary for the Past Weeks

 TemperatureHumidityPressure
High90 °F (Jan 4, 3:00 pm)94% (Jan 5, 1:30 pm)29.95 "Hg (Jan 5, 1:30 pm)
Low75 °F (Jan 5, 1:30 pm)52% (Jan 11, 2:00 pm)29.71 "Hg (Jan 5, 5:00 pm)
Average80 °F78%29.81 "Hg
* Reported Jan 3 10:00 pm — Jan 18 10:00 pm, Luanda, Weather by CustomWeather, © 2017

Note: Actual official high and low records may vary slightly from our data, if they occured in-between our weather recording intervals... More about our weather records

Advertising

Luanda Weather History for the Previous 24 Hours

Scroll right to see more
 ConditionsComfort  
Time TempWeatherWind HumidityBarometerVisibility
10:00 pm
Wed, Jan 18
79 °FPassing clouds.6 mph74%29.86 "HgN/A
9:00 pm81 °FPassing clouds.5 mph70%29.83 "HgN/A
8:00 pm81 °FPassing clouds.7 mph70%29.80 "HgN/A
7:00 pm81 °FPassing clouds.7 mph70%29.80 "HgN/A
6:00 pm81 °FPartly sunny.7 mph74%29.77 "HgN/A
5:00 pm82 °FPassing clouds.6 mph70%29.77 "HgN/A
4:00 pm84 °FPassing clouds.7 mph66%29.77 "HgN/A
3:00 pm84 °FPassing clouds.9 mph66%29.80 "HgN/A
2:00 pm84 °FScattered clouds.N/A70%29.80 "HgN/A
1:00 pm84 °FScattered clouds.7 mph66%29.83 "HgN/A
11:00 am84 °FBroken clouds.5 mph66%29.86 "HgN/A
10:00 am82 °FBroken clouds.5 mph70%29.86 "HgN/A
9:00 am81 °FBroken clouds.6 mph74%29.89 "HgN/A
8:00 am79 °FPartly sunny.7 mph79%29.86 "Hg6 mi
7:00 am75 °FPartly sunny.6 mph89%29.83 "HgN/A
6:00 am75 °FScattered clouds.6 mph89%29.80 "HgN/A
5:00 am75 °FPassing clouds.7 mph89%29.80 "HgN/A
3:00 am77 °FPassing clouds.9 mph79%29.80 "HgN/A
2:00 am77 °FPassing clouds.7 mph83%29.80 "HgN/A
12:00 am77 °FPassing clouds.7 mph83%29.83 "HgN/A
11:00 pm
Tue, Jan 17
79 °FPassing clouds.8 mph79%29.83 "HgN/A
Weather by CustomWeather, © 2017

See weather overviewHow to use our weather pages